Total_Precipitation_Accumulation
1.58 1.72 1.67 1.61 1.63 1.68 1.73 1.75 1.74 1.58 1.27 0.89 0.75 0.72 0.77 0.82 1.04 0.98 0.86 0.84 0.72 0.64 0.54 0.45 0.41 0.43 0.57 0.72 0.91 1.10 1.22 1.33 1.39 1.37 1.29 1.22 1.24 1.29
1.38 1.52 1.64 1.67 1.71 1.72 1.76 1.77 1.71 1.62 1.47 1.09 0.85 0.72 0.81 0.77 0.90 0.78 0.88 1.04 0.81 0.64 0.55 0.49 0.44 0.43 0.43 0.50 0.55 0.60 0.62 0.66 0.78 0.94 1.01 1.00 1.00 1.04
1.22 1.24 1.41 1.56 1.67 1.72 1.73 1.72 1.75 1.67 1.46 1.26 1.00 0.83 0.91 0.90 0.91 0.81 0.86 0.92 0.82 0.75 0.65 0.56 0.49 0.47 0.44 0.45 0.45 0.42 0.43 0.45 0.50 0.64 0.76 0.78 0.77 0.78
1.06 1.14 1.24 1.27 1.37 1.52 1.63 1.63 1.70 1.72 1.60 1.48 1.22 1.01 0.98 0.97 1.06 1.09 1.06 1.02 0.98 1.04 0.98 0.80 0.65 0.58 0.52 0.46 0.43 0.40 0.37 0.38 0.39 0.45 0.56 0.69 0.79 0.77
0.91 0.98 1.04 1.13 1.23 1.26 1.36 1.46 1.54 1.58 1.63 1.55 1.45 1.31 1.16 1.09 1.09 1.07 1.16 1.30 1.26 1.24 1.27 1.09 0.88 0.74 0.66 0.59 0.52 0.46 0.41 0.41 0.39 0.39 0.44 0.52 0.62 0.70
0.83 0.91 0.97 1.01 1.09 1.16 1.19 1.31 1.44 1.53 1.54 1.50 1.45 1.38 1.31 1.28 1.25 1.19 1.25 1.39 1.47 1.37 1.35 1.27 1.17 1.05 0.90 0.78 0.66 0.59 0.55 0.51 0.50 0.48 0.46 0.49 0.54 0.59
0.78 0.82 0.85 0.81 0.85 0.93 0.92 1.09 1.25 1.42 1.49 1.52 1.44 1.34 1.28 1.28 1.26 1.27 1.32 1.47 1.53 1.57 1.57 1.44 1.32 1.15 1.01 0.91 0.78 0.70 0.67 0.61 0.57 0.56 0.55 0.54 0.57 0.63
0.70 0.73 0.80 0.82 0.78 0.74 0.73 0.81 0.94 1.06 1.23 1.36 1.39 1.31 1.24 1.22 1.30 1.41 1.42 1.49 1.59 1.54 1.46 1.54 1.46 1.34 1.17 0.98 0.95 0.91 0.82 0.73 0.65 0.62 0.59 0.58 0.57 0.61
0.54 0.66 0.78 0.84 0.87 0.89 0.77 0.76 0.77 0.81 0.91 1.08 1.21 1.22 1.20 1.21 1.26 1.35 1.43 1.45 1.38 1.45 1.41 1.49 1.47 1.34 1.19 1.12 1.15 1.02 0.93 0.85 0.80 0.73 0.67 0.65 0.65 0.67
0.47 0.57 0.72 0.84 0.87 0.89 0.84 0.90 0.88 0.79 0.76 0.84 1.02 1.10 1.10 1.22 1.34 1.44 1.56 1.54 1.49 1.49 1.42 1.43 1.37 1.23 1.13 1.12 1.20 1.06 0.96 0.89 0.84 0.83 0.80 0.77 0.77 0.78
0.44 0.52 0.67 0.76 0.86 0.87 0.84 0.95 0.95 0.78 0.71 0.81 0.85 0.92 1.00 1.12 1.30 1.44 1.52 1.53 1.51 1.51 1.36 1.23 1.18 1.22 1.22 1.15 1.11 1.09 0.98 0.89 0.82 0.78 0.77 0.76 0.77 0.86
0.44 0.49 0.69 0.74 0.77 0.74 0.76 0.96 1.06 0.93 0.70 0.68 0.75 0.87 0.96 1.09 1.31 1.45 1.66 1.65 1.46 1.44 1.34 1.21 1.19 1.27 1.40 1.30 1.12 1.01 0.94 0.94 0.92 0.87 0.83 0.83 0.90 0.89
0.32 0.37 0.40 0.52 0.55 0.59 0.70 0.82 0.92 0.83 0.75 0.83 0.92 0.95 1.02 1.08 1.18 1.30 1.51 1.67 1.59 1.39 1.29 1.30 1.28 1.27 1.25 1.20 1.14 1.03 0.92 0.89 0.88 0.87 0.91 0.93 0.97 0.96
0.22 0.27 0.31 0.40 0.44 0.50 0.58 0.63 0.67 0.72 0.78 0.91 0.94 0.86 0.91 0.97 0.98 1.08 1.24 1.38 1.27 1.20 1.12 1.09 1.11 1.06 1.01 0.94 0.95 1.00 1.00 0.93 0.89 0.88 0.86 1.00 1.05 1.06
0.15 0.22 0.26 0.34 0.34 0.40 0.48 0.49 0.58 0.80 0.92 0.87 0.84 0.81 0.79 0.83 0.83 0.94 1.13 1.28 1.23 1.05 0.96 0.91 0.91 0.92 0.90 0.85 0.80 0.79 0.85 0.88 0.83 0.83 0.86 0.86 0.85 0.93
0.17 0.20 0.24 0.31 0.34 0.37 0.44 0.51 0.63 0.79 0.93 0.79 0.67 0.68 0.69 0.78 0.85 0.83 0.93 1.03 1.17 1.15 1.03 0.96 0.92 0.92 0.91 0.81 0.79 0.75 0.69 0.71 0.76 0.82 0.85 0.84 0.81 0.80
0.20 0.29 0.39 0.50 0.50 0.51 0.57 0.61 0.64 0.65 0.70 0.65 0.64 0.68 0.72 0.74 0.80 0.82 0.84 0.85 0.88 0.93 0.96 0.95 0.92 0.94 0.96 0.92 0.84 0.75 0.72 0.67 0.70 0.81 0.91 0.92 0.85 0.83
0.29 0.34 0.46 0.60 0.65 0.67 0.68 0.69 0.70 0.66 0.67 0.62 0.64 0.65 0.66 0.66 0.70 0.77 0.85 0.91 0.86 0.77 0.74 0.73 0.77 0.86 0.93 0.96 0.86 0.76 0.74 0.73 0.73 0.76 0.80 0.82 0.78 0.77
0.30 0.35 0.53 0.59 0.57 0.59 0.65 0.69 0.63 0.53 0.54 0.54 0.51 0.51 0.52 0.52 0.55 0.61 0.70 0.77 0.78 0.74 0.70 0.68 0.70 0.76 0.79 0.76 0.71 0.63 0.65 0.71 0.77 0.76 0.73 0.69 0.64 0.62
0.32 0.46 0.60 0.63 0.58 0.52 0.50 0.47 0.41 0.38 0.40 0.41 0.42 0.42 0.46 0.48 0.49 0.51 0.54 0.57 0.63 0.66 0.72 0.73 0.75 0.76 0.76 0.74 0.67 0.59 0.55 0.61 0.67 0.71 0.69 0.70 0.71 0.74
0.28 0.38 0.47 0.54 0.49 0.38 0.32 0.30 0.29 0.31 0.33 0.36 0.39 0.43 0.44 0.47 0.48 0.51 0.52 0.54 0.57 0.60 0.63 0.65 0.70 0.82 0.85 0.86 0.79 0.63 0.57 0.62 0.68 0.66 0.67 0.70 0.71 0.69
0.18 0.22 0.26 0.28 0.27 0.25 0.26 0.27 0.28 0.31 0.33 0.35 0.39 0.43 0.47 0.52 0.52 0.51 0.52 0.53 0.54 0.55 0.55 0.58 0.66 0.78 0.84 0.87 0.78 0.66 0.57 0.58 0.67 0.74 0.73 0.72 0.67 0.62
0.19 0.22 0.24 0.25 0.27 0.27 0.28 0.28 0.29 0.31 0.33 0.35 0.39 0.44 0.46 0.49 0.53 0.54 0.52 0.53 0.54 0.53 0.55 0.57 0.61 0.71 0.79 0.80 0.77 0.69 0.62 0.59 0.59 0.60 0.59 0.63 0.61 0.56